Regional Weather Roundup
Issued by NWS

Home | Current Version | Previous Version | Text Only | Print | Product List | Glossary On
Versions: 1 2 3 4 5 6 7 8 9 10 11 12 13 14 15 16 17 18 19 20 21 22 23 24 25 26 27 28 29 30 31 32 33 34 35 36 37 38 39 40 41 42 43 44 45 46 47 48 49 50
000
ASUS43 KDMX 251201
RWRIA

WEATHER ROUNDUP FOR IOWA
NATIONAL WEATHER SERVICE DES MOINES IA
700 AM CDT MON SEP 25 2017

NOTE: "FAIR" INDICATES FEW OR NO CLOUDS BELOW 12,000 FEET WITH NO
SIGNIFICANT WEATHER AND/OR OBSTRUCTIONS TO VISIBILITY.

* - THESE STATIONS ARE NOT NWS STATIONS...THUS NOT UNDER NWS
QUALITY CONTROL.  THEY ALSO DO NOT REPORT WEATHER SUCH
AS PRECIPITATION OR FOG.

IAZ001>003-012>014-020>022-031>034-043>046-251300-
   NORTHWEST IOWA

CITY           SKY/WX    TMP DP  RH WIND       PRES   REMARKS
CARROLL *      FOG       66  66 100 NE7       29.94F VSB 3/4
CHEROKEE *     TSTM      56  56 100 N9G16     29.99R
DENISON *      CLOUDY    63  63 100 E6        29.95R
LE MARS *      RAIN      55  55 100 N10       29.99F
ORANGE CITY *  RAIN      55  55 100 NE9       30.00S
SHELDON *      HVY RAIN  54  54 100 N8        30.02R
SIOUX CITY     LGT RAIN  56  56 100 N9        29.98S
6HR MIN TEMP:  56; 6HR MAX TEMP:  58; 6HR PCP:  1.03;

SPENCER        HVY RAIN  56  54  93 NE12      29.99F
6HR MIN TEMP:  56; 6HR MAX TEMP:  63; 6HR PCP:  0.32;

STORM LAKE *   LGT RAIN  59  59 100 NE16      29.94F
$$

IAZ055>058-069>071-079>083-090>094-251300-
   SOUTHWEST IOWA

CITY           SKY/WX    TMP DP  RH WIND       PRES   REMARKS
ATLANTIC *     CLOUDY    64  64 100 NE5       29.95S FOG
AUDUBON *      CLOUDY    63  61  94 NE3       29.96F FOG
CLARINDA *     PTCLDY    61  61 100 CALM      29.95S
COUNCIL BLFS * CLOUDY    63  63 100 W12       29.96R
CRESTON *      CLEAR     64  63  94 CALM      29.96R
HARLAN  *      MOCLDY    63  63 100 NE6       29.97S
LAMONI         CLEAR     67  64  90 S5        29.95R
6HR MIN TEMP:  66; 6HR MAX TEMP:  73;

RED OAK *      CLOUDY    64  63  94 NE5       29.95R FOG
SHENANDOAH *   MOCLDY    63  61  94 NE5       29.94R
$$

IAZ047>049-059>061-072>074-084-251300-
   CENTRAL IOWA

CITY           SKY/WX    TMP DP  RH WIND       PRES   REMARKS
AMES           PTCLDY    62  62 100 CALM      29.94R FOG
6HR MIN TEMP:  62; 6HR MAX TEMP:  68;

ANKENY *       PTCLDY    64  63  94 CALM      29.95S
BOONE *        CLEAR     64  63  94 CALM      29.94R
CHARITON *     PTCLDY    66  63  88 S3        29.95S
DES MOINES     MOCLDY    67  63  87 SE3       29.93R
6HR MIN TEMP:  67; 6HR MAX TEMP:  73;

GRINNELL*      CLOUDY    64  61  90 CALM      29.97R
KNOXVILLE *    MOCLDY    66  63  88 S5        29.94R
MARSHALLTOWN   PTCLDY    64  62  93 E3        29.95R FOG
6HR MIN TEMP:  63; 6HR MAX TEMP:  69;

NEWTON *       PTCLDY    64  63  94 SE3       29.95S
PELLA *        MOCLDY    66  62  87 CALM      29.96R
PERRY *        FOG       66  66  99 NW3       29.96R VSB 1/2
$$

IAZ004>006-015-016-023>025-035-036-251300-
   NORTH CENTRAL IOWA

CITY           SKY/WX    TMP DP  RH WIND       PRES   REMARKS
ALGONA *       CLOUDY    59  59 100 N12       30.00R
CLARION *      FOG       64  64 100 N9        29.96S VSB 1/4
ESTHERVILLE    LGT RAIN  54  54 100 N10       30.00R
6HR MIN TEMP:  54; 6HR MAX TEMP:  62; 6HR PCP:  0.47;

FORT DODGE *   CLOUDY    63  63 100 N7        29.97R FOG
MASON CITY     CLOUDY    65  64  97 NW10      29.98R
6HR MIN TEMP:  61; 6HR MAX TEMP:  68;

FOREST CITY *  CLOUDY    63  63 100 N9        29.99R
WEBSTER CITY * CLOUDY    64  64 100 N7        29.94R FOG
IOWA FALLS *     N/A     63  61  94 CALM      29.96R
$$

IAZ007>011-017>019-026>030-037>042-050>054-066-251300-
   NORTHEAST IOWA

CITY           SKY/WX    TMP DP  RH WIND       PRES   REMARKS
CEDAR RAPIDS   CLEAR     64  61  90 SE5       29.96R
6HR MIN TEMP:  64; 6HR MAX TEMP:  70;

CHARLES CITY * PTCLDY    63  63 100 CALM      29.96R
CLINTON *      CLEAR    N/A N/A N/A E6        29.99R
DECORAH *      PTCLDY    64  61  88 CALM      29.95S
DUBUQUE        CLEAR     65  60  84 S3        29.99R
6HR MIN TEMP:  64; 6HR MAX TEMP:  70;

MONTICELLO *   CLEAR     64  61  88 CALM      29.97R
OELWEIN *      CLOUDY    64  63  94 SE6       29.97R
WATERLOO       MOCLDY    63  60  90 CALM      29.95R
6HR MIN TEMP:  62; 6HR MAX TEMP:  70;

$$

IAZ064-065-067-068-078-251300-
   EAST CENTRAL IOWA

CITY           SKY/WX    TMP DP  RH WIND       PRES   REMARKS
DAVENPORT      CLEAR     63  60  90 SE5       29.99R
6HR MIN TEMP:  63; 6HR MAX TEMP:  70;

IOWA CITY      PTCLDY    65  61  87 CALM      29.98R
6HR MIN TEMP:  64; 6HR MAX TEMP:  70;

MUSCATINE *    PTCLDY    63  61  94 W3        29.98R
QUAD CITIES    CLEAR     63  59  87 E6        29.97R
6HR MIN TEMP:  63; 6HR MAX TEMP:  72;

$$

IAZ062-063-075>077-085>089-095>099-251300-
   SOUTHEAST IOWA

CITY           SKY/WX    TMP DP  RH WIND       PRES   REMARKS
BURLINGTON     CLEAR     67  64  90 S5        29.97R
6HR MIN TEMP:  66; 6HR MAX TEMP:  71;

FAIRFIELD *    CLEAR     68  63  83 S6        29.96R
FORT MADISON * CLEAR     66  64  94 S3        29.98S
KEOKUK *       CLEAR     68  64  88 CALM      29.97R
OSKALOOSA *      N/A     64  62  91 CALM      29.97R
OTTUMWA        PTCLDY    68  63  84 S7        29.95R
6HR MIN TEMP:  65; 6HR MAX TEMP:  71;

WASHINGTON *   CLEAR     63  63 100 CALM      29.98R
$$

ABBREVIATIONS USED IN REMARKS
   TC - TEMPERATURES IN CELSIUS
  WCI - WIND CHILL INDEX
   HX - HEAT INDEX
  VSB - VISIBILITY
$$





USA.gov is the U.S. government's official web portal to all federal, state and local government web resources and services.